Weather History for Stevens Point, WI

Change the Weather History Date:

Friday, January 27, 2012

  Actual Average Record
Temperature  
Mean Temperature 28 °F -  
Max Temperature 39 °F 22 °F 51 °F (1973)
Min Temperature 17 °F 2 °F -24 °F (1950)
Degree Days  
Heating Degree Days 37    
Moisture  
Dew Point 19 °F    
Average Humidity 67    
Maximum Humidity 93    
Minimum Humidity 36    
Precipitation  
Precipitation 0.08 in - - ()
Sea Level Pressure  
Sea Level Pressure 29.77 in    
Wind  
Wind Speed 7 mph (SW)    
Max Wind Speed 20 mph    
Max Gust Speed 26 mph    
Visibility 10 miles    
Events Snow    
Averages and records for this station are not official NWS values.
T = Trace of Precipitation, MM = Missing Value Source: NWS Daily Summary

Daily Weather History Graph

Daily Weather History Graph

Search for Another Location

Airport:

Trip Planner

Search our weather history database for the weather conditions in past years. The results will help you decide how hot, cold, wet, or windy it might be!

Date:

Astronomy

Jan. 27, 2012 Rise Set
Actual Time 7:22 AM CST 4:59 PM CST
Civil Twilight 6:51 AM CST 5:31 PM CST
Nautical Twilight 6:15 AM CST 6:06 PM CST
Astronomical Twilight 5:41 AM CST 6:40 PM CST
Moon 9:03 AM CST (1/27) 10:05 PM CST (1/27)
Length of Visible Light 10h 39m
Length of Day
9h 36m
Waxing Crescent, 20% of the Moon is Illuminated
Jan 27
Waxing Crescent
Jan 30
First Quarter
Feb 7
Full
Feb 14
Last Quarter
Feb 21
New

Hourly Weather History & Observations

Time (CST) Temp. Windchill Dew Point Humidity Pressure Visibility Wind Dir Wind Speed Gust Speed Precip Events Conditions
12:35 AM 33.8 °F 24.8 °F 24.8 °F 70% 29.66 in 10.0 mi NNW 12.7 mph 20.7 mph N/A   Overcast
12:55 AM 33.8 °F 25.8 °F 23.0 °F 65% 29.66 in 10.0 mi NW 10.4 mph 17.3 mph N/A   Overcast
1:15 AM 32.0 °F 25.6 °F 21.2 °F 64% 29.66 in 10.0 mi WNW 6.9 mph - N/A   Scattered Clouds
1:35 AM 30.2 °F 23.4 °F 21.2 °F 69% 29.67 in 10.0 mi NW 6.9 mph - N/A   Clear
1:55 AM 30.2 °F 24.3 °F 21.2 °F 69% 29.68 in 10.0 mi WNW 5.8 mph - N/A   Clear
2:15 AM 30.2 °F 24.3 °F 21.2 °F 69% 29.69 in 10.0 mi West 5.8 mph - N/A   Clear
2:35 AM 28.4 °F 22.2 °F 21.2 °F 74% 29.69 in 10.0 mi WNW 5.8 mph - N/A   Clear
2:55 AM 28.4 °F 22.2 °F 21.2 °F 74% 29.71 in 10.0 mi West 5.8 mph - N/A   Clear
3:15 AM 28.4 °F 22.2 °F 19.4 °F 69% 29.72 in 10.0 mi West 5.8 mph - N/A   Clear
3:35 AM 26.6 °F 20.0 °F 19.4 °F 74% 29.72 in 10.0 mi West 5.8 mph - N/A   Clear
3:55 AM 26.6 °F 21.2 °F 19.4 °F 74% 29.73 in 10.0 mi West 4.6 mph - N/A   Clear
4:15 AM 24.8 °F 17.9 °F 19.4 °F 80% 29.75 in 10.0 mi West 5.8 mph - N/A   Clear
4:35 AM 24.8 °F 19.1 °F 19.4 °F 80% 29.76 in 10.0 mi West 4.6 mph - N/A   Clear
4:55 AM 24.8 °F 20.5 °F 19.4 °F 80% 29.76 in 10.0 mi West 3.5 mph - N/A   Clear
5:15 AM 24.8 °F - 19.4 °F 80% 29.77 in 10.0 mi Calm Calm - N/A   Clear
5:35 AM 23.0 °F - 19.4 °F 86% 29.77 in 10.0 mi Calm Calm - N/A   Clear
5:55 AM 21.2 °F - 17.6 °F 86% 29.78 in 10.0 mi Calm Calm - N/A   Clear
6:35 AM 17.6 °F - 15.8 °F 93% 29.78 in 10.0 mi Calm Calm - N/A   Clear
6:55 AM 19.4 °F - 17.6 °F 93% 29.79 in 10.0 mi Calm Calm - N/A   Clear
7:15 AM 19.4 °F 11.5 °F 17.6 °F 93% 29.80 in 10.0 mi WSW 5.8 mph - N/A   Clear
7:35 AM 19.4 °F 11.5 °F 17.6 °F 93% 29.81 in 10.0 mi WSW 5.8 mph - N/A   Clear
7:55 AM 19.4 °F 12.8 °F 17.6 °F 93% 29.81 in 10.0 mi WSW 4.6 mph - N/A   Clear
8:15 AM 21.2 °F - 17.6 °F 86% 29.81 in 10.0 mi Calm Calm - N/A   Clear
8:35 AM 21.2 °F 12.6 °F 17.6 °F 86% 29.82 in 10.0 mi WSW 6.9 mph - N/A   Clear
8:55 AM 23.0 °F 17.0 °F 17.6 °F 80% 29.82 in 10.0 mi West 4.6 mph - N/A   Clear
9:15 AM 24.8 °F 17.9 °F 17.6 °F 74% 29.82 in 10.0 mi WSW 5.8 mph - N/A   Clear
9:35 AM 26.6 °F - 17.6 °F 69% 29.82 in 10.0 mi Calm Calm - N/A   Clear
9:55 AM 26.6 °F 20.0 °F 17.6 °F 69% 29.83 in 10.0 mi WSW 5.8 mph - N/A   Clear
10:15 AM 26.6 °F 22.6 °F 17.6 °F 69% 29.83 in 10.0 mi West 3.5 mph - N/A   Clear
10:55 AM 28.4 °F 23.3 °F 17.6 °F 64% 29.84 in 10.0 mi SW 4.6 mph - N/A   Scattered Clouds
11:15 AM 30.2 °F 25.4 °F 17.6 °F 60% 29.84 in 10.0 mi SW 4.6 mph - N/A   Clear
11:35 AM 32.0 °F 26.4 °F 17.6 °F 55% 29.83 in 10.0 mi SSW 5.8 mph - 0.01 in   Clear
11:55 AM 33.8 °F 28.6 °F 17.6 °F 52% 29.82 in 10.0 mi South 5.8 mph - 0.02 in   Scattered Clouds
12:15 PM 33.8 °F 28.6 °F 17.6 °F 52% 29.82 in 10.0 mi South 5.8 mph - N/A   Scattered Clouds
12:35 PM 33.8 °F 27.7 °F 17.6 °F 52% 29.80 in 10.0 mi South 6.9 mph - N/A   Mostly Cloudy
12:55 PM 33.8 °F 27.0 °F 17.6 °F 52% 29.80 in 10.0 mi SSW 8.1 mph - N/A   Mostly Cloudy
1:15 PM 33.8 °F 26.4 °F 17.6 °F 52% 29.80 in 10.0 mi South 9.2 mph - 0.01 in   Scattered Clouds
1:35 PM 33.8 °F 27.7 °F 19.4 °F 56% 29.79 in 10.0 mi South 6.9 mph - 0.01 in   Scattered Clouds
1:55 PM 35.6 °F 29.9 °F 17.6 °F 48% 29.79 in 10.0 mi South 6.9 mph - 0.01 in   Overcast
2:15 PM 35.6 °F 31.7 °F 17.6 °F 48% 29.79 in 10.0 mi South 4.6 mph - 0.01 in   Overcast
2:35 PM 35.6 °F 31.7 °F 19.4 °F 52% 29.80 in 10.0 mi South 4.6 mph - 0.02 in   Overcast
2:55 PM 37.4 °F 33.8 °F 19.4 °F 48% 29.79 in 10.0 mi South 4.6 mph - 0.03 in   Mostly Cloudy
3:15 PM 39.2 °F 32.5 °F 15.8 °F 39% 29.79 in 10.0 mi SW 10.4 mph - 0.01 in   Overcast
3:35 PM 39.2 °F 29.6 °F 14.0 °F 36% 29.79 in 10.0 mi SSW 19.6 mph 26.5 mph 0.01 in   Overcast
3:55 PM 37.4 °F 28.9 °F 15.8 °F 41% 29.79 in 10.0 mi SW 13.8 mph 25.3 mph 0.01 in   Overcast
4:15 PM 37.4 °F 30.8 °F 17.6 °F 45% 29.78 in 10.0 mi SW 9.2 mph - 0.01 in   Overcast
4:35 PM 37.4 °F 28.9 °F 17.6 °F 45% 29.77 in 10.0 mi SSW 13.8 mph - 0.01 in   Overcast
4:55 PM 35.6 °F 27.5 °F 17.6 °F 48% 29.77 in 10.0 mi South 11.5 mph - 0.01 in   Overcast
5:15 PM 35.6 °F 27.1 °F 15.8 °F 44% 29.76 in 10.0 mi SSW 12.7 mph - N/A   Overcast
5:35 PM 35.6 °F 27.5 °F 15.8 °F 44% 29.76 in 10.0 mi SSW 11.5 mph - N/A   Overcast
5:55 PM 35.6 °F 27.1 °F 15.8 °F 44% 29.77 in 10.0 mi SSW 12.7 mph - N/A   Overcast
6:15 PM 33.8 °F 24.3 °F 21.2 °F 60% 29.77 in 10.0 mi SSW 13.8 mph 21.9 mph N/A Snow Light Snow
6:35 PM 35.6 °F 27.5 °F 21.2 °F 56% 29.77 in 10.0 mi SSW 11.5 mph - N/A   Overcast
6:55 PM 33.8 °F 23.9 °F 26.6 °F 75% 29.77 in 5.0 mi SSW 15.0 mph 24.2 mph N/A Snow Light Snow
7:15 PM 33.8 °F 24.3 °F 26.6 °F 75% 29.76 in 10.0 mi SSW 13.8 mph 20.7 mph N/A   Overcast
7:35 PM 33.8 °F 24.3 °F 28.4 °F 81% 29.76 in 4.0 mi SSW 13.8 mph 23.0 mph N/A Snow Light Snow
7:55 PM 32.0 °F 23.0 °F 28.4 °F 87% 29.75 in 5.0 mi SSW 11.5 mph - N/A Snow Light Snow
8:35 PM 32.0 °F 23.6 °F 28.4 °F 87% 29.74 in 5.0 mi SSW 10.4 mph 16.1 mph N/A   Overcast
8:55 PM 32.0 °F 23.0 °F 28.4 °F 87% 29.73 in 4.0 mi SSW 11.5 mph - N/A   Overcast
9:15 PM 32.0 °F 23.6 °F 30.2 °F 93% 29.72 in 5.0 mi SSW 10.4 mph 17.3 mph N/A   Overcast
9:35 PM 32.0 °F 24.8 °F 30.2 °F 93% 29.72 in 7.0 mi SSW 8.1 mph - N/A   Overcast
9:55 PM 32.0 °F 24.2 °F 30.2 °F 93% 29.72 in 7.0 mi SW 9.2 mph - N/A Snow Light Snow
10:15 PM 32.0 °F 24.8 °F 30.2 °F 93% 29.71 in 4.0 mi SW 8.1 mph - N/A   Overcast
10:35 PM 32.0 °F 24.2 °F 30.2 °F 93% 29.71 in 7.0 mi SW 9.2 mph - N/A   Overcast
10:55 PM 33.8 °F 27.7 °F 30.2 °F 87% 29.71 in 7.0 mi SW 6.9 mph - N/A   Overcast
11:15 PM 33.8 °F 27.0 °F 30.2 °F 87% 29.70 in 7.0 mi SW 8.1 mph - N/A   Overcast
11:35 PM 33.8 °F 28.6 °F 30.2 °F 87% 29.70 in 5.0 mi WSW 5.8 mph - N/A Snow Light Snow
11:55 PM 33.8 °F 26.4 °F 30.2 °F 87% 29.70 in 10.0 mi West 9.2 mph - N/A Snow Light Snow